Location: B?ezina
(49.8085°N, 13.6013°E)
Time: 00:06:29
(UTC+00:00)

Nadezhda 3 Rocket - Pass Details

Date: 19 May 2025
Orbit: 957 x 997 km, 82.9° (Epoch: 15 June)

Event Time Altitude Azimuth Distance (km) Brightness Sun altitude
Exits shadow 21:21:59 25° 169° (S) 1,839 4.9 -16.8°
Maximum altitude 21:25:40 66° 94° (E) 1,057 4.0 -17.0°
Drops below altitude 10° 21:31:51 10° 14° (NNE) 2,736 7.1 -17.4°
Sets 21:34:24 0° 12° (NNE) 3,694 8.0 -17.6°
